Hourly Weather São Luís

Today, 6 August, Thursday

Time Temperature Precipitation Wind Pressure Humidity
00:00 +26°C° 0 mm 4 mps 761 mmHg 88%
01:00 +26°C° 0.1 mm 4 mps 760 mmHg 87%
02:00 +26°C° 0.1 mm 3 mps 759 mmHg 86%
03:00 +26°C° 0 mm 3 mps 759 mmHg 84%
04:00 +26°C° 0 mm 3 mps 759 mmHg 84%
05:00 +26°C° 0 mm 3 mps 760 mmHg 84%
06:00 +26°C° 0 mm 3 mps 760 mmHg 84%
07:00 +27°C° 0.1 mm 3 mps 760 mmHg 78%
08:00 +28°C° 0.1 mm 3 mps 760 mmHg 72%
09:00 +29°C° 0.1 mm 4 mps 761 mmHg 66%
10:00 +30°C° 0 mm 3 mps 761 mmHg 61%
11:00 +31°C° 0 mm 3 mps 760 mmHg 56%
12:00 +33°C° 0 mm 3 mps 760 mmHg 51%
13:00 +34°C° 0 mm 3 mps 759 mmHg 50%
14:00 +34°C° 0 mm 2 mps 759 mmHg 49%
15:00 +34°C° 0 mm 2 mps 758 mmHg 48%
16:00 +32°C° 0 mm 2 mps 758 mmHg 54%
17:00 +31°C° 0 mm 3 mps 758 mmHg 60%
18:00 +29°C° 0 mm 3 mps 758 mmHg 67%
19:00 +28°C° 0 mm 3 mps 759 mmHg 72%
20:00 +28°C° 0 mm 4 mps 759 mmHg 77%
21:00 +27°C° 0 mm 4 mps 760 mmHg 82%
22:00 +27°C° 0 mm 4 mps 760 mmHg 82%
23:00 +27°C° 0 mm 4 mps 760 mmHg 82%

Tomorrow, 7 August, Friday

Time Temperature Precipitation Wind Pressure Humidity
00:00 +27°C° 0 mm 5 mps 760 mmHg 83%
01:00 +27°C° 0.1 mm 4 mps 760 mmHg 84%
02:00 +27°C° 0.1 mm 4 mps 759 mmHg 85%
03:00 +26°C° 0.1 mm 3 mps 759 mmHg 86%
04:00 +26°C° 0.2 mm 3 mps 759 mmHg 88%
05:00 +26°C° 0.2 mm 3 mps 759 mmHg 90%
06:00 +25°C° 0.2 mm 3 mps 760 mmHg 91%
07:00 +27°C° 0.1 mm 3 mps 760 mmHg 85%
08:00 +28°C° 0.1 mm 4 mps 761 mmHg 80%
09:00 +29°C° 0.1 mm 4 mps 761 mmHg 74%
10:00 +30°C° 0 mm 4 mps 761 mmHg 66%
11:00 +32°C° 0 mm 4 mps 761 mmHg 58%
12:00 +33°C° 0 mm 4 mps 760 mmHg 51%
13:00 +34°C° 0 mm 3 mps 760 mmHg 49%
14:00 +34°C° 0 mm 3 mps 759 mmHg 47%
15:00 +35°C° 0 mm 2 mps 758 mmHg 45%
16:00 +33°C° 0 mm 3 mps 758 mmHg 55%
17:00 +30°C° 0 mm 3 mps 758 mmHg 65%
18:00 +28°C° 0 mm 4 mps 759 mmHg 75%
19:00 +27°C° 0 mm 4 mps 759 mmHg 78%
20:00 +27°C° 0 mm 4 mps 760 mmHg 81%
21:00 +26°C° 0 mm 4 mps 760 mmHg 84%
22:00 +26°C° 0 mm 4 mps 760 mmHg 84%
23:00 +27°C° 0 mm 4 mps 760 mmHg 83%

Day after tomorrow, 8 August, Saturday

Time Temperature Precipitation Wind Pressure Humidity
00:00 +27°C° 0 mm 5 mps 760 mmHg 83%
01:00 +27°C° 0 mm 5 mps 760 mmHg 83%
02:00 +27°C° 0 mm 4 mps 760 mmHg 84%
03:00 +27°C° 0 mm 4 mps 759 mmHg 84%
04:00 +27°C° 0 mm 5 mps 760 mmHg 85%
05:00 +27°C° 0 mm 5 mps 760 mmHg 86%
06:00 +26°C° 0 mm 5 mps 760 mmHg 87%
07:00 +27°C° 0 mm 5 mps 761 mmHg 80%
08:00 +28°C° 0 mm 5 mps 761 mmHg 73%
09:00 +29°C° 0 mm 5 mps 761 mmHg 66%
10:00 +30°C° 0 mm 4 mps 761 mmHg 61%
11:00 +31°C° 0 mm 3 mps 761 mmHg 55%
12:00 +33°C° 0 mm 3 mps 761 mmHg 50%
13:00 +34°C° 0 mm 3 mps 760 mmHg 49%
14:00 +34°C° 0 mm 3 mps 759 mmHg 48%
15:00 +34°C° 0 mm 3 mps 758 mmHg 48%
16:00 +33°C° 0 mm 3 mps 758 mmHg 56%
17:00 +30°C° 0 mm 4 mps 758 mmHg 65%
18:00 +28°C° 0 mm 4 mps 759 mmHg 73%
19:00 +28°C° 0 mm 4 mps 759 mmHg 76%
20:00 +27°C° 0 mm 3 mps 759 mmHg 78%
21:00 +26°C° 0 mm 3 mps 760 mmHg 80%
22:00 +26°C° 0 mm 4 mps 760 mmHg 81%
23:00 +26°C° 0 mm 4 mps 760 mmHg 82%

9 August, Sunday

Time Temperature Precipitation Wind Pressure Humidity
00:00 +26°C° 0 mm 4 mps 760 mmHg 83%
01:00 +27°C° 0 mm 4 mps 760 mmHg 84%
02:00 +27°C° 0 mm 4 mps 759 mmHg 85%
03:00 +27°C° 0 mm 4 mps 759 mmHg 86%
04:00 +26°C° 0.4 mm 4 mps 759 mmHg 87%
05:00 +26°C° 0.4 mm 4 mps 759 mmHg 88%
06:00 +26°C° 0.4 mm 3 mps 760 mmHg 89%
07:00 +27°C° 0.3 mm 4 mps 760 mmHg 84%
08:00 +28°C° 0.3 mm 5 mps 760 mmHg 80%
09:00 +29°C° 0.3 mm 5 mps 761 mmHg 75%
10:00 +32°C° 0.1 mm 4 mps 760 mmHg 67%
11:00 +33°C° 0.1 mm 3 mps 760 mmHg 58%
12:00 +34°C° 0.1 mm 2 mps 760 mmHg 50%
13:00 +35°C° 0 mm 2 mps 759 mmHg 49%
14:00 +35°C° 0 mm 3 mps 758 mmHg 48%
15:00 +35°C° 0 mm 3 mps 757 mmHg 47%
16:00 +33°C° 0 mm 3 mps 758 mmHg 56%
17:00 +30°C° 0 mm 4 mps 758 mmHg 65%
18:00 +29°C° 0 mm 4 mps 758 mmHg 74%
19:00 +28°C° 0 mm 4 mps 758 mmHg 76%
20:00 +28°C° 0 mm 4 mps 758 mmHg 79%
21:00 +27°C° 0 mm 4 mps 759 mmHg 82%
22:00 +27°C° 0 mm 5 mps 759 mmHg 84%
23:00 +27°C° 0 mm 5 mps 759 mmHg 85%

10 August, Monday

Time Temperature Precipitation Wind Pressure Humidity
00:00 +27°C° 0 mm 5 mps 759 mmHg 87%
01:00 +27°C° 0 mm 5 mps 758 mmHg 87%
02:00 +27°C° 0 mm 5 mps 758 mmHg 86%
03:00 +27°C° 0 mm 5 mps 757 mmHg 86%
04:00 +27°C° 0.5 mm 5 mps 758 mmHg 87%
05:00 +27°C° 0.5 mm 5 mps 758 mmHg 88%
06:00 +27°C° 0.5 mm 5 mps 758 mmHg 89%
07:00 +27°C° 0.8 mm 5 mps 758 mmHg 86%
08:00 +28°C° 0.8 mm 5 mps 759 mmHg 84%
09:00 +29°C° 0.8 mm 5 mps 759 mmHg 82%
10:00 +30°C° 0.1 mm 5 mps 759 mmHg 72%
11:00 +33°C° 0.1 mm 4 mps 759 mmHg 63%
12:00 +34°C° 0.1 mm 3 mps 759 mmHg 54%
13:00 +34°C° 0 mm 3 mps 758 mmHg 54%
14:00 +34°C° 0 mm 4 mps 757 mmHg 55%
15:00 +34°C° 0 mm 4 mps 756 mmHg 55%
16:00 +33°C° 0 mm 5 mps 756 mmHg 63%
17:00 +30°C° 0 mm 5 mps 757 mmHg 71%
18:00 +29°C° 0 mm 5 mps 757 mmHg 79%
19:00 +28°C° 0 mm 5 mps 757 mmHg 81%
20:00 +28°C° 0 mm 5 mps 758 mmHg 83%
21:00 +28°C° 0 mm 5 mps 758 mmHg 85%
22:00 +27°C° 0 mm 5 mps 758 mmHg 85%
23:00 +27°C° 0 mm 5 mps 758 mmHg 86%

11 August, Tuesday

Time Temperature Precipitation Wind Pressure Humidity
00:00 +27°C° 0 mm 5 mps 758 mmHg 86%
01:00 +27°C° 0 mm 5 mps 758 mmHg 86%
02:00 +28°C° 0 mm 5 mps 757 mmHg 86%
03:00 +28°C° 0 mm 5 mps 757 mmHg 86%
04:00 +27°C° 0.7 mm 5 mps 757 mmHg 87%
05:00 +27°C° 0.7 mm 5 mps 757 mmHg 88%
06:00 +27°C° 0.7 mm 6 mps 757 mmHg 89%
07:00 +27°C° 0.3 mm 6 mps 758 mmHg 87%
08:00 +28°C° 0.3 mm 6 mps 759 mmHg 85%
09:00 +28°C° 0.3 mm 6 mps 759 mmHg 82%
10:00 +30°C° 0 mm 5 mps 759 mmHg 72%
11:00 +33°C° 0 mm 4 mps 758 mmHg 62%
12:00 +34°C° 0 mm 3 mps 758 mmHg 52%
13:00 +34°C° 0 mm 3 mps 757 mmHg 53%
14:00 +34°C° 0 mm 4 mps 757 mmHg 54%
15:00 +34°C° 0 mm 5 mps 756 mmHg 55%
16:00 +33°C° 0 mm 5 mps 756 mmHg 63%
17:00 +30°C° 0 mm 5 mps 756 mmHg 70%
18:00 +29°C° 0 mm 5 mps 756 mmHg 78%
19:00 +28°C° 0 mm 5 mps 756 mmHg 79%
20:00 +28°C° 0 mm 5 mps 757 mmHg 81%
21:00 +27°C° 0 mm 5 mps 757 mmHg 82%
22:00 +27°C° 0 mm 5 mps 757 mmHg 82%
23:00 +28°C° 0 mm 6 mps 757 mmHg 82%
Show more